Tracking 23752 objects as of 23-Oct-2021
HD Live streaming from Space Station
objects crossing your sky now

FREGAT R/B

Track FREGAT R/B now!


NORAD ID: 40546
Int'l Code: 2015-017C
Perigee: 23,506.7 km
Apogee: 23,606.6 km
Inclination: 56.8 °
Period: 858.8 minutes
Semi major axis: 29927 km
RCS: Unknown
Launch date: March 27, 2015
Source: Commonwealth of Independent States (former USSR) (CIS)
Launch site: FRENCH GUIANA (FRGUI)

Note: This is a ROCKET BODY
aabbcc
Your satellite tracking list
Your tracking list is empty




NASA's NSSDC Master Catalog

Two Line Element Set (TLE):
1 40546U 15017C   21290.77943970 -.00000106  00000-0  00000-0 0  9991
2 40546  56.7518  30.3259 0016702 201.1785 158.7548  1.67684942 40183
Source of the keplerian elements: AFSPC